• In Sweden
  • List of Countries
  • For 7 days
  • Water Temperature
  • Satellite Maps
  • Weather Map
  • Weather Widgets
  • user-avatar
    Login

    Hourly Weather Dorohovo

    Today, 26 May, Saturday

    Time Temperature Precipitation Wind Pressure Humidity
    00:00 +9°C° 0 mm 1 mps 761 mmHg 68%
    01:00 +9°C° 0 mm 1 mps 761 mmHg 68%
    02:00 +8°C° 0 mm 1 mps 761 mmHg 68%
    03:00 +9°C° 0 mm 1 mps 761 mmHg 68%
    04:00 +10°C° 0 mm 1 mps 762 mmHg 67%
    05:00 +11°C° 0 mm 1 mps 762 mmHg 67%
    06:00 +13°C° 0 mm 2 mps 762 mmHg 61%
    07:00 +15°C° 0 mm 2 mps 762 mmHg 56%
    08:00 +17°C° 0 mm 2 mps 762 mmHg 51%
    09:00 +18°C° 0 mm 2 mps 762 mmHg 48%
    10:00 +19°C° 0 mm 3 mps 762 mmHg 45%
    11:00 +20°C° 0 mm 3 mps 762 mmHg 42%
    12:00 +21°C° 0 mm 3 mps 761 mmHg 42%
    13:00 +21°C° 0 mm 3 mps 761 mmHg 41%
    14:00 +22°C° 0 mm 3 mps 761 mmHg 41%
    15:00 +22°C° 0 mm 3 mps 760 mmHg 44%
    16:00 +21°C° 0 mm 3 mps 760 mmHg 47%
    17:00 +21°C° 0 mm 3 mps 759 mmHg 50%
    18:00 +19°C° 0 mm 3 mps 759 mmHg 56%
    19:00 +17°C° 0 mm 3 mps 759 mmHg 63%
    20:00 +14°C° 0 mm 3 mps 759 mmHg 70%
    21:00 +14°C° 0 mm 3 mps 759 mmHg 69%
    22:00 +13°C° 0 mm 3 mps 759 mmHg 69%
    23:00 +12°C° 0 mm 3 mps 759 mmHg 69%

    Tomorrow, 27 May, Sunday

    Time Temperature Precipitation Wind Pressure Humidity
    00:00 +12°C° 0 mm 3 mps 759 mmHg 70%
    01:00 +12°C° 0 mm 3 mps 759 mmHg 71%
    02:00 +12°C° 0 mm 3 mps 758 mmHg 71%
    03:00 +12°C° 0 mm 3 mps 758 mmHg 73%
    04:00 +12°C° 0 mm 4 mps 758 mmHg 74%
    05:00 +12°C° 0 mm 4 mps 757 mmHg 75%
    06:00 +14°C° 0 mm 4 mps 757 mmHg 71%
    07:00 +17°C° 0 mm 4 mps 757 mmHg 67%
    08:00 +19°C° 0 mm 5 mps 756 mmHg 63%
    09:00 +20°C° 0 mm 5 mps 756 mmHg 59%
    10:00 +22°C° 0 mm 5 mps 756 mmHg 54%
    11:00 +23°C° 0 mm 6 mps 755 mmHg 50%
    12:00 +23°C° 0.1 mm 5 mps 755 mmHg 53%
    13:00 +22°C° 0.1 mm 4 mps 755 mmHg 56%
    14:00 +22°C° 0.1 mm 4 mps 754 mmHg 59%
    15:00 +22°C° 0.3 mm 4 mps 754 mmHg 58%
    16:00 +21°C° 0.3 mm 4 mps 754 mmHg 58%
    17:00 +21°C° 0.3 mm 4 mps 754 mmHg 57%
    18:00 +19°C° 0 mm 4 mps 755 mmHg 57%
    19:00 +17°C° 0 mm 3 mps 755 mmHg 56%
    20:00 +13°C° 0 mm 3 mps 756 mmHg 55%
    21:00 +12°C° 0 mm 3 mps 756 mmHg 53%
    22:00 +11°C° 0 mm 3 mps 757 mmHg 50%
    23:00 +9°C° 0 mm 2 mps 757 mmHg 48%

    Day after tomorrow, 28 May, Monday

    Time Temperature Precipitation Wind Pressure Humidity
    00:00 +8°C° 0 mm 2 mps 758 mmHg 50%
    01:00 +7°C° 0 mm 2 mps 758 mmHg 53%
    02:00 +7°C° 0 mm 2 mps 759 mmHg 56%
    03:00 +7°C° 0 mm 2 mps 759 mmHg 57%
    04:00 +7°C° 0 mm 2 mps 759 mmHg 59%
    05:00 +8°C° 0 mm 2 mps 760 mmHg 60%
    06:00 +10°C° 0 mm 2 mps 760 mmHg 53%
    07:00 +13°C° 0 mm 2 mps 760 mmHg 47%
    08:00 +15°C° 0 mm 2 mps 760 mmHg 41%
    09:00 +16°C° 0 mm 2 mps 760 mmHg 38%
    10:00 +16°C° 0 mm 3 mps 760 mmHg 36%
    11:00 +17°C° 0 mm 3 mps 760 mmHg 34%
    12:00 +18°C° 0 mm 3 mps 760 mmHg 33%
    13:00 +19°C° 0 mm 3 mps 759 mmHg 33%
    14:00 +19°C° 0 mm 2 mps 759 mmHg 33%
    15:00 +19°C° 0 mm 2 mps 759 mmHg 35%
    16:00 +19°C° 0 mm 2 mps 759 mmHg 38%
    17:00 +19°C° 0 mm 2 mps 758 mmHg 40%
    18:00 +17°C° 0 mm 2 mps 758 mmHg 47%
    19:00 +15°C° 0 mm 2 mps 758 mmHg 53%
    20:00 +13°C° 0 mm 1 mps 758 mmHg 59%
    21:00 +13°C° 0 mm 2 mps 758 mmHg 59%
    22:00 +12°C° 0 mm 2 mps 758 mmHg 60%
    23:00 +10°C° 0 mm 2 mps 758 mmHg 61%

    29 May, Tuesday

    Time Temperature Precipitation Wind Pressure Humidity
    00:00 +10°C° 0 mm 2 mps 758 mmHg 62%
    01:00 +9°C° 0 mm 2 mps 758 mmHg 64%
    02:00 +9°C° 0 mm 2 mps 758 mmHg 66%
    03:00 +10°C° 0 mm 2 mps 758 mmHg 66%
    04:00 +10°C° 0 mm 2 mps 758 mmHg 66%
    05:00 +12°C° 0 mm 2 mps 758 mmHg 66%
    06:00 +14°C° 0 mm 2 mps 758 mmHg 60%
    07:00 +16°C° 0 mm 3 mps 757 mmHg 55%
    08:00 +18°C° 0 mm 3 mps 757 mmHg 50%
    09:00 +19°C° 0 mm 3 mps 757 mmHg 46%
    10:00 +21°C° 0 mm 3 mps 756 mmHg 42%
    11:00 +22°C° 0 mm 3 mps 756 mmHg 38%
    12:00 +24°C° 0 mm 3 mps 756 mmHg 38%
    13:00 +24°C° 0 mm 3 mps 755 mmHg 37%
    14:00 +25°C° 0 mm 3 mps 754 mmHg 37%
    15:00 +25°C° 0 mm 3 mps 754 mmHg 40%
    16:00 +24°C° 0 mm 3 mps 753 mmHg 44%
    17:00 +24°C° 0 mm 2 mps 753 mmHg 47%
    18:00 +21°C° 0 mm 2 mps 753 mmHg 53%
    19:00 +19°C° 0 mm 2 mps 752 mmHg 59%
    20:00 +17°C° 0 mm 2 mps 752 mmHg 65%
    21:00 +16°C° 0 mm 2 mps 752 mmHg 67%
    22:00 +15°C° 0 mm 2 mps 752 mmHg 68%
    23:00 +14°C° 0 mm 2 mps 752 mmHg 69%

    30 May, Wednesday

    Time Temperature Precipitation Wind Pressure Humidity
    00:00 +14°C° 0 mm 2 mps 751 mmHg 71%
    01:00 +12°C° 0 mm 3 mps 751 mmHg 73%
    02:00 +12°C° 0 mm 3 mps 751 mmHg 74%
    03:00 +12°C° 0 mm 3 mps 750 mmHg 73%
    04:00 +13°C° 0 mm 3 mps 750 mmHg 71%
    05:00 +14°C° 0 mm 3 mps 749 mmHg 70%
    06:00 +15°C° 0 mm 4 mps 749 mmHg 64%
    07:00 +17°C° 0 mm 5 mps 748 mmHg 59%
    08:00 +20°C° 0 mm 5 mps 748 mmHg 53%
    09:00 +22°C° 0 mm 6 mps 747 mmHg 50%
    10:00 +24°C° 0 mm 6 mps 746 mmHg 47%
    11:00 +26°C° 0 mm 7 mps 746 mmHg 44%
    12:00 +26°C° 0 mm 7 mps 745 mmHg 47%
    13:00 +24°C° 0 mm 6 mps 745 mmHg 50%
    14:00 +24°C° 0 mm 6 mps 744 mmHg 53%
    15:00 +22°C° 0.1 mm 6 mps 745 mmHg 53%
    16:00 +21°C° 0.1 mm 6 mps 745 mmHg 52%
    17:00 +20°C° 0.1 mm 6 mps 745 mmHg 52%
    18:00 +17°C° 0 mm 5 mps 746 mmHg 52%
    19:00 +15°C° 0 mm 5 mps 746 mmHg 51%
    20:00 +12°C° 0 mm 4 mps 747 mmHg 50%
    21:00 +11°C° 0 mm 4 mps 747 mmHg 51%
    22:00 +10°C° 0 mm 4 mps 748 mmHg 51%
    23:00 +8°C° 0 mm 4 mps 748 mmHg 52%

    31 May, Thursday

    Time Temperature Precipitation Wind Pressure Humidity
    00:00 +9°C° 0 mm 3 mps 749 mmHg 56%
    01:00 +8°C° 0 mm 3 mps 749 mmHg 60%
    02:00 +7°C° 0 mm 3 mps 749 mmHg 63%
    03:00 +7°C° 0 mm 4 mps 749 mmHg 65%
    04:00 +7°C° 0 mm 4 mps 749 mmHg 66%
    05:00 +7°C° 0 mm 4 mps 750 mmHg 68%
    06:00 +8°C° 0 mm 5 mps 750 mmHg 63%
    07:00 +10°C° 0 mm 5 mps 750 mmHg 58%
    08:00 +12°C° 0 mm 5 mps 750 mmHg 53%
    09:00 +12°C° 0 mm 5 mps 750 mmHg 51%
    10:00 +13°C° 0 mm 6 mps 750 mmHg 49%
    11:00 +14°C° 0 mm 6 mps 751 mmHg 47%
    12:00 +14°C° 0 mm 5 mps 751 mmHg 47%
    13:00 +14°C° 0 mm 5 mps 751 mmHg 47%
    14:00 +15°C° 0 mm 5 mps 751 mmHg 47%
    15:00 +15°C° 0 mm 5 mps 751 mmHg 48%
    16:00 +14°C° 0 mm 5 mps 751 mmHg 49%
    17:00 +14°C° 0 mm 4 mps 751 mmHg 50%
    18:00 +13°C° 0 mm 4 mps 751 mmHg 54%
    19:00 +11°C° 0 mm 3 mps 751 mmHg 59%
    20:00 +10°C° 0 mm 2 mps 752 mmHg 63%
    21:00 +9°C° 0 mm 3 mps 752 mmHg 62%
    22:00 +8°C° 0 mm 3 mps 752 mmHg 62%
    23:00 +7°C° 0 mm 3 mps 752 mmHg 61%
    Show more